STARLINK-31977, 59892

Orbit data source: Space-Track

STARLINK-31977, 59892 is a payload satellite owned by SpaceX/Seattle (US) in LEO that was launched on Tue, 28 May 2024 UTC via an FALCON 9 launch vehicle from the Air Force Eastern Test Range (AFETR). Payload-class satellites include a variety of spacecraft equipped with specific instruments for various scientific and technological missions. These include communications satellites like Starlink; space stations such as the ISS; scientific satellites like the Hubble; Earth observation satellites from companies like Planet Labs, Umbra, and HawkEye 360; GPS; miniature CubeSats for education and research; and military/defense satellites.

Loading next visibility...
Identifier
59892, 2024-100H
Orbit
LEO
Last TLE update
9 hours ago
Origin
Manufacturer
SpaceX/Seattle
Mission
Operational spacecraft
Bus & Motor
STARLINK V2M, Unknown motor
Mass
730 kg wet, ~700 kg dry
Launch date (UTC)
2024-05-28 (11 months ago)
Launch vehicle
FALCON 9
Launch site
Air Force Eastern Test Range (AFETR)
Object type
Payload
Rocket body
Debris
Shape & HBR
Unknown
Radar Cross Section
Large (>1 m²)

Expand to show TLE details & history

TLE from 9 hours ago
0 STARLINK-31977
1 59892U 24100H   25128.93636836 -.00002769  00000-0 -58995-4 0  9998
2 59892  43.0015  42.6112 0001592 271.2386  88.8288 15.40723987 54591
Epoch: 2025-05-08T22:28Z
Definitive object data (Epoch: 2025-05-08T22:28:22.226Z)
Latitude
-0.00002°
Longitude
-161.48114°
Altitude
443.724 km
Speed
7.648 km/s
True Right ascension
02h 50m 26s
True Declination
0° 00' 00"
Sunlit
Object was in daylight at TLE epoch
Visualization TLE readout
Latitude
-32.77453°
Longitude
152.97311°
Altitude
452.178 km
Speed
7.642 km/s
Apparent Right ascension
01h 35m 47s
Apparent Declination
-39° 51' 45"
Sunlit
Object is in daylight
Visualization observer readout
Local Sidereal Time
15:43:57
Azimuth
100.312° ESE
Elevation
-65.548°
Doppler factor
1
Orbital elements
Apogee altitude
447.014 km
Perigee altitude
444.841 km
Semi-major axis
6,824.064 km
Eccentricity
0.0001592
Inclination
43.0015°
RAAN
42.6112°
Arg. of periapsis
271.2386°
True anomaly
88.84704°
Mean anomaly
88.8288°
Eccentric anomaly
88.83792°
Mean motion
3.85016 °/min
BSTAR
-0.000058995
Orbital period
93.5 mins
Loading maneuver chart data...
Loading SW <> Apogee altitude chart data...
Loading historical data...
Loading historical data...
Loading historical data...
Loading historical data...
Loading historical data...
Loading historical data...
Loading historical data...

STARLINK-31977 Visibility forecast

Observer location: undefined°, undefined°

Span
Click to sort rows by Start time (UTC) header in descending order
Start Az.
Max El. time (UTC)
Max El. Az.
Max El.
End time (UTC)
End Az.
5 mins2025-05-09 22:03:55.816Z232.703° WSW2025-05-09 22:05:55.816Z122.321° SE41.484°2025-05-09 22:08:55.816Z75.187° E
5 mins2025-05-09 23:41:55.816Z287.022° WNW2025-05-09 23:43:55.816Z4.809° NNE37.948°2025-05-09 23:46:55.816Z71.171° E
5 mins2025-05-10 01:19:55.816Z294.501° NW2025-05-10 01:21:55.816Z352.154° N41.638°2025-05-10 01:24:55.816Z93.158° ESE
5 mins2025-05-10 02:57:55.816Z268.261° W2025-05-10 02:59:55.816Z215.886° SW30.982°2025-05-10 03:02:55.816Z142.993° SSE
|